Location: Cortada de Papelón
(10.0378°N, 66.9528°W)
Time: 09:06:46
(UTC+00:00)

Okean 3 Rocket - Pass Details

Date: 13 June 2024
Orbit: 612 x 641 km, 82.5° (Epoch: 20 July)

Event Time Altitude Azimuth Distance (km) Brightness Sun altitude
Rises 23:29:44 0° 349° (N) 2,879 7.6 -9.9°
Reaches altitude 10° 23:31:58 10° 346° (NNW) 1,978 6.8 -10.4°
Maximum altitude 23:36:17 58° 267° (W) 725 4.2 -11.3°
Drops below altitude 10° 23:40:38 10° 188° (S) 1,997 6.0 -12.3°
Sets 23:42:54 0° 184° (S) 2,909 6.8 -12.8°
